Skip Page Navigation
NASA JPL Caltech
NASA Logo - Jet Propulsion Laboratory + View the NASA Portal
+ Center for Near-Earth Object Studies
JPL Home Earth Solar System Stars & Galaxies Technology
JPL Solar System Dynamics
BODIES ORBITS EPHEMERIDES TOOLS PHYSICAL DATA DISCOVERY FAQ SITE MAP
IMPORTANT: The SSD Announcement email list is now available. Major changes are coming in the near future, including possible hostname and/or URL changes. To be notified of such changes, subscribe to this email list.

Please visit this page for more details.


JPL Small-Body Database Browser
Search: [ help ]  
376347 (2011 HM36)
Classification: Main-belt Asteroid          SPK-ID: 2376347
Ephemeris | Orbit Diagram | Orbital Elements | Mission Design | Physical Parameters | Discovery Circumstances | Close-Approach Data ]

[ show orbit diagram ]
Orbital Elements at Epoch 2459000.5 (2020-May-31.0) TDB
Reference: JPL 12 (heliocentric ecliptic J2000)
 Element Value Uncertainty (1-sigma)   Units 
e .04743529724132062 6.2031e-08  
a 3.051105196739947 5.3481e-08 au
q 2.906375114818049 2.136e-07 au
i 8.253551658478237 7.33e-06 deg
node 131.8158707170059 5.4851e-05 deg
peri 321.4615636451546 0.00010936 deg
M 16.0305120371638 9.2642e-05 deg
tp 2458913.817966088965
(2020-Mar-05.31796609)
0.00050076 TDB
period 1946.633528338219
5.33
5.1182e-05
1.401e-07
d
yr
n .1849346550130166 4.8624e-09 deg/d
Q 3.195835278661844 5.6018e-08 au
  Orbit Determination Parameters
   # obs. used (total)      116  
   data-arc span      4946 days (13.54 yr)  
   first obs. used      2006-05-22  
   last obs. used      2019-12-06  
   planetary ephem.      DE431  
   SB-pert. ephem.      SB431-N16  
   condition code      0  
   norm. resid. RMS      .54769  
   source      ORB  
   producer      Otto Matic  
   solution date      2019-Dec-14 21:07:28  

Additional Information
 Earth MOID = 1.9284 au 
 Jupiter MOID = 1.89329 au 
 T_jup = 3.219 
[ show covariance matrix ]

Ephemeris | Orbit Diagram | Orbital Elements | Mission Design | Physical Parameters | Discovery Circumstances | Close-Approach Data ]

Physical Parameter Table
Parameter Symbol Value Units Sigma Reference Notes
absolute magnitude H 16.2   n/a MPO455714  

376347 (2011 HM36)          Discovered 2006-May-22 by Spacewatch at Kitt Peak
Reference: Last Updated: 2013-10-21

[ hide close-approach data ]
Close-Approach Data   ...sorted by Date/Time (TDB)
Date/Time (TDB) Time Uncertainty
(days_HH:MM)
Body Nominal Distance (au) Minimum Distance (au) Maximum Distance (au) V-relative (km/s) V-infinity (km/s) JD (TDB) Time Uncertainty (minutes) Semi-major axis (km) Semi-minor axis (km) range-LOV angle (deg) N-sigma BP Orbit Ref. Reference Modified
1938-Mar-09 12:35 00:06 Jupiter 1.94203706299337 1.94203601287449 1.94203811312562 3.73268747145668 3.61395249245614 2428967.024255523 6.00900512217009 348.646656529911 30.0849214661664 -83.5803139580426 2128975.07432568 T 12 CATAB v2.0f-lin.ifort 2019-Dec-14 21:07:31 2019-Dec-14 21:07
1986-Aug-24 08:14 00:02 Jupiter 1.93020988050293 1.93020908650519 1.93021067450143 3.7344194432671 3.61500214102312 2446666.843330210 2.30997428387537 157.581196943626 29.6711134044809 83.5369952184331 1915677.1350019 T 12 CATAB v2.0f-lin.ifort 2019-Dec-14 21:07:31 2019-Dec-14 21:07
2044-Sep-13 22:42 00:02 Jupiter 1.96417078979957 1.96417007420167 1.96417150539803 3.73329349416283 3.61593790428307 2467872.446163501 2.28410404698292 142.937776561143 28.7197673654923 -84.006964163787 2246592.17271899 T 12 CATAB v2.0f-lin.ifort 2019-Dec-14 21:07:31 2019-Dec-14 21:07
2093-Feb-28 18:40 00:06 Jupiter 1.91800516337437 1.91800441744369 1.918005909307 3.70070911049298 3.57938753712786 2485572.277978036 6.06966821968806 386.524062964173 30.1927727003797 88.4636389582297 1923959.83066491 T 12 CATAB v2.0f-lin.ifort 2019-Dec-14 21:07:31 2019-Dec-14 21:07
2141-Aug-22 23:28 00:10 Jupiter 1.98101911179681 1.98101720437997 1.98102101926691 3.69113484808832 3.57342109330649 2503278.477945075 10.0152366593391 571.618831821582 29.0278508439925 81.5407549131472 1948683.56464037 T 12 CATAB v2.0f-lin.ifort 2019-Dec-14 21:07:31 2019-Dec-14 21:07
2151-Mar-24 19:14 00:11 Jupiter 1.98464761409566 1.98464519078448 1.98465003744779 3.73308404898929 3.61695200365707 2506779.301541926 10.5037915375426 491.678965614404 31.5958766021096 -76.3056798442371 2404969.02655311 T 12 CATAB v2.0f-lin.ifort 2019-Dec-14 21:07:31 2019-Dec-14 21:07
2199-Sep-08 02:18 00:14 Jupiter 1.91253192567755 1.91253114384909 1.91253270753678 3.68220917738283 3.55990225037365 2524478.595622183 14.3786294504543 897.719980158267 29.7708014850938 -89.1374060522772 1969915.95477672 T 12 CATAB v2.0f-lin.ifort 2019-Dec-14 21:07:31 2019-Dec-14 21:07

Alternate Designations
 2011 HM36 = 2006 KX60 
Ephemeris | Orbit Diagram | Orbital Elements | Mission Design | Physical Parameters | Discovery Circumstances | Close-Approach Data ]
ABOUT SSD CREDITS/AWARDS PRIVACY/COPYRIGHT GLOSSARY LINKS
FirstGov 2020-Mar-30 15:26 UT
(server date/time)  
NASA Home Page
Site Manager:   Ryan S. Park
Webmaster  Alan B. Chamberlin